Regional Weather Roundup
Issued by NWS

Home | Current Version | Previous Version | Graphics & Text | Print | Product List | Glossary On
Versions: 1 2 3 4 5 6 7 8 9 10 11 12 13 14 15 16 17 18 19 20 21 22 23 24 25 26 27 28 29 30 31 32 33 34 35 36 37 38 39 40 41 42 43 44 45 46 47 48 49 50
892
ASUS44 KLIX 010501
RWRLA
LOUISIANA WEATHER ROUNDUP
NATIONAL WEATHER SERVICE NEW ORLEANS LA
1100 PM CST SAT FEB 28 2015

NOTE: "FAIR" INDICATES FEW OR NO CLOUDS BELOW 12,000 FEET WITH NO
      SIGNIFICANT WEATHER AND/OR OBSTRUCTIONS TO VISIBILITY.
      SKY/WX - SKY CONDITION AND SIGNIFICANT WEATHER.
      TMP - AIR TEMPERATURE.    DP   - DEWPOINT TEMPERATURE.
      RH  - RELATIVE HUMIDITY.  PRES - PRESSURE.
      HX  - HEAT INDEX.         WCI  - WIND CHILL INDEX.

*  THESE STATIONS ARE NOT NWS OR FAA STATIONS AND ARE NOT UNDER
   NWS QUALITY CONTROL.

LAZ040-048-061>063-065-066-069-010600-
SOUTHEAST LOUISIANA

CITY           SKY/WX    TMP DP  RH WIND       PRES   REMARKS
N.O. AUDUBON     N/A     56  55  98 MISG        N/A
N.O. INTL ARPT PTCLDY    56  52  86 E10       30.34S
N.O. LAKEFRONT PTCLDY    57  52  83 E14       30.36R
SLIDELL        CLEAR     54  52  93 E5        30.35F
BATON ROUGE    PTCLDY    55  49  80 E8        30.31F
BOOTHVILLE     CLOUDY    57  56  96 E10       30.34S
BELLE CHASSE   MOCLDY    57  52  83 E10       30.34S
BOGALUSA*        N/A     55  49  80 E3        30.38R
GALLIANO*      CLOUDY    58  56  92 NE6       30.34R FOG
NEW ROADS*     FAIR      55  48  80 E7        30.30F
GONZALES*      NOT AVBL
HAMMOND*       NOT AVBL
HOUMA*         CLOUDY    57  55  92 E12       30.32F
PORT FOURCHON* CLOUDY    59  57  94 E14       30.34F FOG

$$

LAZ041-044-053-054-010600-
SOUTHWEST LOUISIANA

CITY           SKY/WX    TMP DP  RH WIND       PRES   REMARKS
LAKE CHARLES   MOCLDY    57  47  69 E9        30.24F
LAFAYETTE      PTCLDY    57  48  72 E5        30.29S
PATTERSON      PTCLDY    55  52  88 E13       30.31F
SALT POINT       N/A     57  53  86 E6        30.28S
NEW IBERIA     PTCLDY    56  48  74 E7        30.30R
CHENAULT AIRPK PTCLDY    55  46  72 E6        30.26F

$$

LAZ027-028-010600-
CENTRAL LOUISIANA

CITY           SKY/WX    TMP DP  RH WIND       PRES   REMARKS
FORT POLK      CLOUDY    54  39  57 E7        30.26F
ALEXANDRIA INT CLOUDY    51  38  60 CALM      30.29S
ALEXANDRIA     CLOUDY    49  39  68 CALM      30.30F

$$

LAZ001-002-010600-
NORTHWEST LOUISIANA

CITY           SKY/WX    TMP DP  RH WIND       PRES   REMARKS
SHREVEPORT     CLOUDY    47  35  63 NE5       30.30S
BARKSDALE AFB  NOT AVBL
DTN SHREVEPORT CLOUDY    45  33  63 CALM      30.32R

$$

LAZ014-016-010600-
NORTHEAST LOUISIANA

CITY           SKY/WX    TMP DP  RH WIND       PRES   REMARKS
MONROE         CLOUDY    45  37  73 N3        30.34S
TALLULAH       CLEAR     44  39  82 CALM      30.32S

$$




USA.gov is the U.S. government's official web portal to all federal, state and local government web resources and services.